Showing default

IRIDIUM 170, 43930

Orbit data source: Space-Track

IRIDIUM 170, 43930 is a payload satellite owned by Iridium (US) in LEO that was launched on Fri, 11 Jan 2019 UTC via an FALCON 9 launch vehicle from the Air Force Western Test Range (AFWTR). Payload-class satellites include a variety of spacecraft equipped with specific instruments for various scientific and technological missions. These include communications satellites like Starlink; space stations such as the ISS; scientific satellites like the Hubble; Earth observation satellites from companies like Planet Labs, Umbra, and HawkEye 360; GPS; miniature CubeSats for education and research; and military/defense satellites.

Loading next visibility...
Identifier
43930, 2019-002J
Orbit
LEO
Country
Flag of USUS
Related business
Manufacturer
NGIS SSG Gilbert
Mission
Operational Commercial Communications
Bus & Motor
ELITEBUS, Unknown motor
Mass
860 kg wet, 700 kg dry
Launch date (UTC)
2019-01-11 (7 years ago)
Launch vehicle
FALCON 9
Launch site
Air Force Western Test Range (AFWTR)
Object type
Payload
Rocket body
Debris
Shape & HBR
Trap Box + 2 Pan, 4.8 m
Radar Cross Section
10.154 m², Large (>1 m²)

Expand to show TLE details & history
Last TLE update: 1 day ago

TLE from 1 day ago
0 IRIDIUM 170
1 43930U 19002J   25348.76878805  .00000088  00000-0  10053-4 0  9991
2 43930  86.6086  70.6669 0002285  91.3717 268.7761 14.72243332372127
Epoch: 2025-12-14T18:27Z
TLE epoch observation values (Epoch: 2025-12-14T18:27:03.287Z)
Latitude
-0.00012°
Longitude
70.22624°
Altitude
657.058 km
Speed
7.529 km/s
True Right ascension
04h 42m 40s
True Declination
0° 00' 00"
Sunlit
Object was in full shadow at epoch
Visualization orbit readout
Latitude
Unknown
Longitude
Unknown
Altitude
Unknown
Speed
Unknown
Apparent Right ascension
Unknown
Apparent Declination
Unknown
Sunlit
N/A
Visualization observer readout
Local Sidereal Time
17:45:40
Azimuth
Unknown
Elevation
Unknown
Doppler factor
Unknown
Orbital elements
Apogee altitude
652.428 km
Perigee altitude
649.216 km
Semi-major axis
7,028.959 km
Eccentricity
0.00023
Inclination
86.6086°
RAAN
70.6669°
Arg. of periapsis
91.3717°
True anomaly
268.74992°
Mean anomaly
268.7761°
Eccentric anomaly
268.76301°
Mean motion
3.68304 °/min
Orbital period
97.75 mins
BSTAR
0.000010053
Loading maneuver chart data...
Computing Atmospheric mass density...
Loading historical data...
Loading historical data...
Loading historical data...
Loading historical data...
Loading historical data...
Loading historical data...
Loading historical data...

Documentation

Showing up to 5 results
|